Location: Bear Branch Nature Center
(39.6445°N, 76.9901°W)
Time: 04:41:04
(UTC-04:00)

Daily predictions for brighter satellites

Satellite Brightness Start Highest point End
(mag) Time Altitude Azimuth Time Altitude Azimuth Time Altitude Azimuth
Cosmos 1932 4.5 00:06:32 56° SW 00:07:52 75° WNW 00:14:07 10° NNE
Cosmos 1470 4.3 00:08:48 10° N 00:11:08 34° N 00:11:08 34° N
Cosmos 2369 Rocket 3.7 00:08:24 10° NW 00:12:51 24° WSW 00:13:08 24° WSW
Cosmos 1953 4.0 00:11:02 10° NNW 00:13:33 28° WNW 00:13:33 28° WNW
Cosmos 1570 Rocket 4.1 00:12:35 10° NNW 00:17:35 74° WNW 00:17:35 74° WNW
Okean 3 Rocket 4.4 00:19:24 46° NNE 00:19:24 46° NNE 00:22:33 10° N
Cosmos 2221 3.8 00:15:29 10° N 00:18:26 35° NE 00:18:26 35° NE
H-2A R/B 4.1 00:18:01 10° NNE 00:19:58 28° NNE 00:19:58 28° NNE
Cosmos 1850 Rocket 4.1 00:22:19 71° NW 00:22:19 71° NW 00:27:18 10° NNE
Cosmos 1607 3.8 00:23:14 83° SSE 00:23:23 84° ESE 00:29:39 10° NNE
Meteor 1-16 Rocket 4.4 00:21:30 10° N 00:26:56 60° ENE 00:26:56 60° ENE
NOSS 3-2 (C) 4.3 00:32:11 37° E 00:32:11 37° E 00:37:03 10° NE
Lacrosse 4 Rocket 4.0 00:31:19 13° WNW 00:32:56 15° NW 00:35:23 10° NNW
COSMOS 2406 3.6 00:32:43 53° W 00:33:22 57° WNW 00:39:01 10° NNE
Terra 4.2 00:35:13 12° W 00:35:14 12° W 00:37:10 10° WNW
Cosmos 1417 Rocket 4.4 00:34:31 10° N 00:40:40 73° E 00:40:49 73° E
ALOS 2 3.5 00:42:00 47° NNW 00:42:00 47° NNW 00:45:08 10° NNW
Cosmos 1553 Rocket 4.1 00:40:09 10° N 00:46:25 61° E 00:46:50 60° E
Cosmos 2082 Rocket 3.7 01:01:19 25° E 01:01:19 25° E 01:04:59 10° NE
CZ-4C R/B 2.3 01:07:58 67° NE 01:07:58 67° NE 01:13:09 10° NE
Meteor 1-24 Rocket 3.9 01:08:02 72° W 01:08:05 72° W 01:14:04 10° N
Cosmos 1655 Rocket 4.3 01:09:33 54° W 01:10:02 55° W 01:16:12 10° N
Timation 2 Rocket 4.2 01:11:25 64° ESE 01:11:38 65° ESE 01:18:25 10° NNE
S3M 3.8 01:05:36 10° N 01:11:53 83° W 01:11:58 83° WSW
Cosmos 1833 Rocket 4.1 01:14:49 26° E 01:14:49 26° E 01:18:39 10° NE
Cosmos 2266 Rocket 4.2 01:14:31 59° ESE 01:14:51 60° E 01:21:09 10° NNE
NOSS 3-2 (A) 3.4 01:16:20 76° W 01:16:43 80° NW 01:23:23 10° NNE
CZ-4B R/B 4.3 01:24:16 15° NW 01:24:16 15° NW 01:25:09 10° NW
Cosmos 1943 Rocket 4.3 01:21:54 10° WNW 01:23:46 14° W 01:23:46 14° W
Cosmos 1763 Rocket 3.8 01:29:13 10° NNW 01:34:24 59° ENE 01:34:24 59° ENE
Meteor 2-2 Rocket 4.5 01:28:59 10° N 01:34:38 60° E 01:34:54 60° E
Cosmos 1867 3.8 01:35:25 62° ENE 01:35:25 62° ENE 01:40:09 10° NE
Meteor 1-21 Rocket 4.2 01:36:29 78° E 01:36:29 78° E 01:42:05 10° NNE
Cosmos 2344 3.5 01:38:01 61° S 01:39:25 74° ESE 01:47:58 10° NE
ISS 0.3 01:38:48 10° NNW 01:39:29 10° N 01:40:10 10° N
CZ-2C R/B 3.3 01:39:24 67° E 01:39:31 67° ENE 01:45:08 10° N
Cosmos 1656 4.4 01:40:59 10° NNW 01:46:32 49° ENE 01:47:44 42° E
USA 215 3.6 01:41:45 10° ENE 01:47:54 47° SE 01:47:54 47° SE
Cosmos 1354 Rocket 4.1 01:49:06 72° NE 01:49:06 72° NE 01:53:58 10° NNE
Meteor 2-20 4.4 01:52:46 65° W 01:53:06 66° W 01:59:15 10° N
CZ-2C R/B 2.9 01:47:53 10° N 01:53:21 59° WNW 01:53:23 59° WNW
Cosmos 1503 Rocket 4.0 01:56:46 80° NNE 01:56:46 80° NNE 02:01:50 10° NNE
Cosmos 2369 3.8 01:54:23 10° NNW 01:59:26 62° WNW 01:59:26 62° WNW
In-Cosmos 22 4.5 02:02:13 55° WNW 02:02:13 55° WNW 02:07:42 10° N
Cosmos 841 Rocket 3.6 02:06:49 10° NNW 02:11:28 63° WNW 02:11:28 63° WNW
Lacrosse 5 3.5 02:12:02 10° NNW 02:16:37 33° NE 02:21:11 10° E
CENTAUR R/B 2.5 02:24:16 58° SSE 02:25:04 64° ESE 02:31:43 10° NE
Cosmos 1437 Rocket 4.0 02:22:36 10° NNW 02:25:05 36° NNW 02:25:05 36° NNW
Cosmos 1980 Rocket 2.9 02:22:46 10° NNW 02:28:15 50° ENE 02:31:05 27° SE
Cosmos 1805 Rocket 3.7 02:31:12 70° NNE 02:31:12 70° NNE 02:35:11 10° N
BREEZE-M DEB (TANK) 4.0 02:35:34 24° E 02:35:34 24° E 02:38:28 10° ENE
Cosmos 1300 3.4 02:35:40 10° N 02:38:46 53° NNE 02:38:46 53° NNE
Cosmos 1633 Rocket 3.3 02:40:36 63° E 02:40:36 63° E 02:44:58 10° NNE
ERS-2 2.9 02:39:14 10° NNE 02:42:12 51° NE 02:42:12 51° NE
Cosmos 2082 Rocket 2.9 02:43:09 38° W 02:44:10 41° WNW 02:49:32 10° N
Cosmos 2315 Rocket 4.4 02:39:00 10° NNW 02:44:54 43° W 02:45:31 42° WSW
Cosmos 1707 Rocket 3.6 02:41:15 10° N 02:45:14 73° NNW 02:45:14 73° NNW
NPP 3.8 02:41:05 10° NNE 02:46:27 64° ESE 02:47:32 52° SSE
Cosmos 1666 Rocket 3.5 02:47:42 80° N 02:47:42 80° N 02:51:48 10° N
Aureole 1 Rocket 3.4 02:44:17 10° NNW 02:48:53 73° WSW 02:49:24 67° SSW
Cosmos 1697 Rocket 2.6 02:44:08 10° NNW 02:49:46 66° WSW 02:50:19 62° SW
Cosmos 371 Rocket 4.3 02:46:36 10° N 02:51:14 43° ENE 02:54:01 21° SE
CBERS-1 4.3 02:48:30 10° NNE 02:53:34 60° E 02:54:40 49° SSE
ADEOS 4.4 02:48:43 10° NNE 02:53:41 43° E 02:55:18 34° SE
CZ-4C R/B 4.3 02:53:07 12° WNW 02:56:35 20° NW 03:01:02 10° NNE
ASTEX 1 4.3 02:52:53 10° NNW 02:57:21 35° WNW 02:57:30 34° W
Cosmos 1833 Rocket 3.4 02:56:30 36° W 02:57:43 41° WNW 03:03:03 10° N
Cosmos 1470 Rocket 4.3 02:57:02 40° SE 02:57:52 46° E 03:02:07 10° NNE
Cosmos 1745 Rocket 4.0 02:57:59 49° SSW 02:59:49 80° W 03:06:13 10° N
BREEZE-M DEB (TANK) 4.4 02:58:47 10° NW 03:02:04 55° NNE 03:13:10 10° ESE
Cosmos 1933 Rocket 4.1 03:01:52 43° SE 03:02:41 49° E 03:06:56 10° NNE
ARIANE 5 R/B 4.0 02:58:34 10° NE 03:02:57 28° E 03:05:27 19° SE
Abrixas 4.4 03:03:23 29° N 03:03:23 29° N 03:05:48 10° NE
Cosmos 2360 4.4 03:01:00 10° NNW 03:06:44 73° ENE 03:10:43 20° SSE
Meteor 1-27 4.3 03:00:56 10° NNW 03:06:45 65° W 03:08:08 49° SSW
Cosmos 1455 3.8 03:03:38 10° NNE 03:07:03 31° ENE 03:08:33 23° ESE
Nadezhda 1 Rocket 3.8 03:02:59 10° N 03:09:11 82° W 03:11:30 41° S
AQUA 3.7 03:04:37 10° NNE 03:09:25 87° ESE 03:10:19 59° S
ATLAS 5 CENTAUR R/B 3.8 03:08:54 15° SE 03:10:39 18° ESE 03:14:04 10° ENE
Cosmos 1709 Rocket 4.5 03:08:22 27° SSE 03:11:45 57° E 03:17:53 10° NNE
Meteor 1-4 Rocket 3.7 03:09:12 10° N 03:12:49 43° ENE 03:13:57 33° ESE
Meteor 2-10 4.3 03:07:50 10° N 03:13:01 65° E 03:15:58 27° SSE
USA 161 3.7 03:14:39 21° NE 03:14:39 21° NE 03:15:53 10° NNE
SL-14 R/B 3.7 03:14:51 46° WNW 03:14:51 46° WNW 03:18:13 10° N
H-2A R/B 2.8 03:15:26 41° SSW 03:16:37 47° SSE 03:34:23 10° E
ISS 0.0 03:15:12 10° NNW 03:17:04 14° NNE 03:18:55 10° NE
Cosmos 2058 4.3 03:19:43 26° WNW 03:19:43 26° WNW 03:23:05 10° NNW
Cosmos 1726 2.9 03:16:56 10° NNW 03:19:43 38° WNW 03:19:43 38° WNW
IRS-1C 4.0 03:17:37 10° NNE 03:23:00 88° WNW 03:24:53 42° SSW
Sich 1 3.7 03:23:35 39° W 03:23:49 39° WNW 03:27:59 10° N
Cosmos 540 Rocket 3.9 03:21:14 10° NW 03:26:01 39° WSW 03:26:15 39° WSW
Okean O Rocket 4.3 03:24:19 10° ENE 03:26:23 13° E 03:28:26 10° ESE
SL-16 R/B 2.8 03:21:31 10° NNW 03:27:07 57° ENE 03:32:41 10° SE
Cosmos 1703 3.3 03:27:21 59° WSW 03:27:37 61° W 03:31:33 10° N
USA 215 3.8 03:24:44 10° NE 03:31:01 51° NW 03:35:14 21° W
SL-08 R/B 3.7 03:37:04 39° WSW 03:37:49 42° W 03:42:27 10° NNW
Cosmos 1862 Rocket 3.5 03:33:55 10° N 03:38:26 86° W 03:40:18 35° S
Cosmos 1626 2.1 03:37:59 53° S 03:38:47 84° E 03:42:33 10° N
Cosmos 332 Rocket 4.2 03:34:31 10° NW 03:39:00 40° WSW 03:39:28 38° WSW
EO 1 Del DPAF 3.7 03:38:05 21° SSE 03:40:31 61° ENE 03:44:24 10° N
Lacrosse 5 rocket 2.9 03:36:38 10° NNW 03:40:49 41° NE 03:45:08 10° ESE
Cosmos 2322 Rocket 2.2 03:35:21 10° NNW 03:41:01 80° ENE 03:46:37 10° SSE
Resurs 1-4 Rocket 2.8 03:38:30 10° NNE 03:43:41 50° E 03:47:33 17° S
Cosmos 1271 Rocket 2.6 03:41:58 10° NNW 03:45:44 67° W 03:46:34 49° SSW
SEDSat Delta rocket 4.5 03:47:11 30° SW 03:49:48 41° S 03:55:55 10° ESE
OAO 3 Rocket 3.5 03:56:42 33° SW 03:58:12 46° S 04:02:43 10° E
Lacrosse 5 2.1 03:54:52 10° NW 03:59:40 44° SW 04:04:26 10° SSE
Cosmos 968 Rocket 4.3 03:58:51 25° WSW 04:00:59 35° WNW 04:05:43 10° N
Cosmos 2181 Rocket 3.9 03:56:15 10° NNW 04:02:23 70° W 04:07:42 14° S
Cosmos 1869 Rocket 4.1 03:59:35 16° S 04:02:55 57° E 04:07:15 10° NNE
CRYOSAT 2 4.4 04:04:29 10° N 04:09:24 84° E 04:13:30 15° S
Cosmos 1980 Rocket 3.4 04:07:40 10° NW 04:11:49 21° W 04:12:46 21° WSW
Cosmos 2360 Rocket 3.0 04:07:32 10° NNW 04:13:03 52° ENE 04:18:32 10° SE
CENTAUR R/B 4.0 04:11:26 12° W 04:16:17 28° NW 04:22:11 10° NNE
Cosmos 923 Rocket 4.0 04:11:34 10° NNW 04:16:47 64° WSW 04:21:55 10° S
CZ-4B R/B 4.3 04:12:57 10° NNE 04:18:06 41° E 04:23:17 10° S
Cosmos 2219 4.2 04:16:51 10° S 04:22:14 44° ESE 04:27:40 10° NE
IRS-1C Rocket 4.4 04:17:46 10° NNE 04:23:02 66° ESE 04:28:16 10° S
Cosmos 2322 4.2 04:17:39 10° NNW 04:23:21 63° ENE 04:29:01 10° SE
CZ-2D R/B 2.1 04:18:23 10° N 04:23:36 71° WNW 04:27:56 15° SSW
Cosmos 1680 Rocket 3.4 04:21:49 10° NNW 04:27:00 68° WSW 04:32:09 10° S
SL-16 R/B 2.6 04:21:34 10° S 04:27:42 58° W 04:33:52 10° NNW
USA 229 DEB 4.3 04:24:39 10° S 04:31:19 53° ESE 04:38:04 10° NE
USA 229 4.4 04:24:46 10° S 04:31:26 52° ESE 04:38:10 10° NE
Cosmos 1703 Rocket 3.7 04:28:46 10° NNW 04:33:02 54° W 04:37:16 10° S
H-2A ROCKET BODY 3.0 04:33:12 17° SSW 04:33:31 17° SSW 04:35:35 10° SSE
Thor Agena Rocket 4.0 04:29:30 10° SSE 04:34:44 67° ENE 04:40:00 10° N
Cosmos 1346 4.1 04:35:20 21° WSW 04:36:42 30° WNW 04:39:28 10° NNW
Cosmos 2074 Rocket 4.0 04:30:37 10° SSW 04:36:45 70° W 04:43:00 10° N
Cosmos 2184 Rocket 4.1 04:33:06 10° SSW 04:39:26 70° W 04:45:48 10° N
IRS-1D 4.3 04:35:04 10° N 04:40:00 39° WNW 04:44:12 14° SW
CZ-2D R/B 3.4 04:36:17 10° N 04:40:29 78° WNW 04:44:32 10° SSW
ARIANE 5 R/B 3.5 04:37:33 10° N 04:42:03 32° WNW 04:45:48 13° SW
Cosmos 1455 4.0 04:40:17 10° NW 04:42:28 15° W 04:43:34 13° WSW
BREEZE-M DEB (TANK) 4.4 04:37:17 10° WNW 04:44:10 42° N 04:47:11 10° ENE
Cosmos 389 Rocket 4.1 04:41:19 10° N 04:44:48 38° ENE 04:48:16 10° SSE
FALCON 9 R/B 1.4 04:48:01 17° SW 04:49:05 25° S 04:51:21 10° ESE
ATLAS CENTAUR R/B 3.5 04:45:19 10° NNW 04:49:39 35° NE 04:53:40 10° ESE
Cosmos 304 Rocket 4.1 04:45:54 10° NNW 04:50:29 45° WSW 04:55:04 10° S
COSMOS 2428 3.7 04:46:06 10° NNW 04:51:40 53° ENE 04:57:12 10° SE
UNKNOWN OBJECT B 3.5 04:48:14 10° N 04:51:44 37° WNW 04:55:05 11° SW
Cosmos 1833 4.5 04:46:40 12° SW 04:51:56 58° WNW 04:57:37 10° NNE
ISS -2.5 04:50:51 10° NW 04:54:04 56° NE 04:57:16 10° ESE
ATLAS 5 CENTAUR R/B 2.3 04:50:28 12° SW 04:54:47 53° NW 04:59:56 10° NNE
Cosmos 1898 Rocket 3.5 04:52:17 10° SSW 04:57:29 87° WNW 05:02:41 10° NNE
Cosmos 1892 3.3 04:57:00 10° S 05:00:50 61° E 05:04:41 10° NNE
GPS 2-05 Rocket1 3.5 04:58:55 11° WSW 05:01:53 38° S 05:05:10 10° ESE
CZ-4B R/B 2.9 04:58:24 10° NNE 05:02:24 87° ESE 05:06:36 10° SSW
Okean O Rocket 1.9 04:58:45 10° N 05:03:05 54° WNW 05:07:21 10° SSW
GENESIS II 4.2 05:00:56 10° NW 05:05:03 73° WSW 05:09:04 10° SSE
Cosmos 2150 Rocket 4.1 05:01:15 10° SSW 05:06:29 69° WNW 05:11:51 10° NNE
Meteor 2-3 Rocket 3.8 05:01:59 10° SSW 05:07:43 69° W 05:13:31 10° N
ADEOS II 3.7 05:03:27 10° NNE 05:08:14 35° E 05:13:00 10° SSE
Cosmos 292 Rocket 4.3 05:03:39 10° NNW 05:08:27 66° ENE 05:13:12 10° SSE
Cosmos 1937 Rocket 3.6 05:03:29 10° SSW 05:08:48 85° ESE 05:14:08 10° NNE
Okean 1-7 3.7 05:04:50 10° NNW 05:08:50 35° W 05:12:48 10° SSW
SL-16 R/B 3.5 05:06:51 10° WNW 05:10:41 19° W 05:14:31 10° SW
GP-B 3.6 05:09:18 10° N 05:13:43 65° E 05:18:08 10° S
Cosmos 2237 4.4 05:08:26 10° NNW 05:14:12 84° ENE 05:19:56 10° SSE
